Vorticity
17 10 11 4 5 10 13 13 12 10 12 10 5 6 7 7 8 10 15 11 13 12 11 14 8 9 9 19 2 2 8 15 13 13 19 36 21 8
12 9 6 5 9 11 10 11 12 10 14 5 4 8 6 8 9 14 12 13 13 14 12 9 5 10 8 8 10 12 9 11 15 19 10 11 11 10
10 9 8 8 12 8 11 13 11 15 6 4 11 6 8 9 13 11 12 11 12 12 7 5 7 6 8 8 6 5 7 6 6 9 6 16 12 7
7 9 4 6 6 12 16 11 14 9 4 12 6 7 9 11 13 11 10 10 10 9 8 6 5 2 6 9 9 9 8 8 7 5 5 7 8 10
3 5 8 8 15 13 15 11 9 7 11 7 8 9 10 13 12 10 10 11 11 11 10 10 9 8 8 10 8 8 8 7 8 10 7 5 7 8
6 7 15 7 6 21 14 8 11 11 10 8 8 10 13 11 10 9 8 9 9 8 8 8 8 9 9 9 8 7 7 7 7 7 8 10 10 8
12 6 -7 26 10 12 8 11 12 11 8 8 9 10 8 7 8 10 10 10 9 8 10 11 9 10 10 9 9 10 10 9 8 8 7 7 8 9
10 2 29 4 18 13 11 11 9 8 8 7 8 11 12 10 10 8 9 8 8 9 10 9 10 10 10 11 12 11 10 9 8 7 6 6 7 7
45 7 11 19 13 10 11 10 9 8 7 7 10 10 9 9 9 9 9 9 9 10 10 9 8 9 11 11 10 8 8 10 13 15 14 13 12 10
6 19 11 10 10 10 10 8 7 8 8 8 7 9 8 8 9 10 10 9 9 10 10 9 11 11 9 12 16 12 7 4 5 7 9 9 11 13
15 9 12 12 10 10 7 9 8 9 7 6 9 8 7 11 11 10 9 8 10 10 10 11 7 11 21 7 2 3 6 9 11 11 13 14 8 8
11 13 12 11 8 8 9 9 10 5 5 10 8 8 10 9 11 10 9 9 12 12 10 5 15 17 4 4 6 6 7 6 12 12 15 13 10 13
13 11 8 7 7 10 11 9 3 5 9 8 7 9 7 9 8 8 9 11 10 9 4 13 20 2 -1 4 1 6 7 9 9 15 12 12 21 24
9 7 5 9 11 9 8 4 6 7 7 8 8 7 8 10 10 8 12 11 6 4 7 21 3 2 2 8 5 6 8 7 12 11 15 23 22 20
6 8 11 11 8 8 4 6 6 7 9 6 8 6 7 9 10 10 9 7 4 5 10 27 2 3 5 7 5 5 6 8 9 13 24 22 14 13
12 12 10 7 10 3 7 5 5 8 8 7 7 7 7 8 9 10 7 6 4 5 11 26 4 7 8 7 8 6 9 7 9 15 23 20 14 11
9 9 10 9 8 7 6 4 5 8 10 7 6 7 7 8 6 10 10 8 6 2 7 19 11 9 11 9 9 7 9 9 11 15 20 15 11 10
6 4 4 6 8 8 6 4 5 8 10 7 8 7 8 7 6 9 12 9 5 2 7 17 14 9 9 7 7 9 9 12 12 17 16 12 6 8
9 9 9 9 9 9 6 6 8 10 13 9 8 8 7 4 8 12 13 10 6 3 7 16 12 8 10 6 9 11 10 11 13 20 13 7 17 23
9 9 9 10 10 10 10 10 9 13 13 7 8 7 7 7 10 10 13 11 6 4 14 13 11 11 10 2 16 13 8 10 15 17 9 22 26 27
9 9 10 11 10 9 10 12 12 8 7 6 8 10 9 9 9 11 11 8 6 4 17 10 11 6 8 8 23 10 7 12 17 12 17 24 23 11
10 9 8 9 10 12 11 8 9 7 7 12 13 9 9 12 15 9 10 8 11 8 12 11 5 7 10 15 11 6 9 17 14 11 23 20 13 11
7 6 10 10 9 8 10 5 4 8 9 11 13 13 15 14 7 10 15 7 12 8 12 7 8 15 14 15 7 5 14 18 12 18 20 16 9 15
Height
5766 5764 5763 5761 5758 5756 5753 5750 5747 5745 5744 5742 5741 5737 5734 5731 5728 5725 5720 5717 5713 5710 5708 5705 5703 5701 5697 5695 5692 5689 5685 5681 5678 5674 5669 5667 5669 5670
5755 5754 5753 5751 5748 5746 5743 5741 5738 5737 5736 5734 5732 5730 5726 5723 5719 5716 5712 5709 5706 5704 5702 5699 5697 5695 5692 5689 5687 5684 5681 5678 5675 5671 5668 5667 5667 5667
5745 5744 5743 5741 5739 5736 5733 5731 5730 5729 5727 5725 5723 5721 5718 5715 5711 5708 5705 5702 5699 5697 5695 5693 5691 5689 5687 5684 5681 5678 5676 5673 5671 5669 5667 5665 5665 5665
5736 5735 5732 5730 5729 5727 5725 5723 5721 5721 5719 5717 5715 5712 5710 5707 5704 5701 5698 5695 5693 5691 5688 5687 5685 5683 5680 5677 5674 5672 5670 5668 5667 5664 5663 5662 5660 5660
5725 5724 5722 5720 5719 5718 5716 5715 5713 5713 5710 5709 5706 5704 5702 5698 5697 5694 5691 5688 5686 5684 5681 5679 5677 5675 5672 5670 5667 5665 5663 5662 5660 5659 5658 5655 5654 5654
5715 5714 5712 5711 5709 5709 5707 5706 5705 5704 5702 5700 5698 5696 5694 5691 5689 5687 5684 5681 5679 5677 5674 5671 5669 5666 5664 5662 5660 5657 5655 5653 5652 5651 5650 5649 5647 5645
5703 5702 5701 5701 5700 5699 5699 5698 5697 5696 5695 5693 5691 5688 5686 5684 5681 5679 5676 5674 5671 5668 5665 5663 5661 5658 5656 5654 5651 5649 5647 5645 5643 5641 5640 5638 5638 5637
5692 5691 5690 5691 5690 5689 5690 5690 5689 5689 5687 5685 5683 5681 5679 5676 5673 5671 5668 5666 5663 5661 5658 5655 5652 5650 5647 5645 5643 5640 5639 5637 5635 5633 5631 5629 5627 5626
5682 5681 5682 5680 5681 5682 5682 5682 5681 5681 5680 5677 5675 5673 5670 5668 5665 5663 5660 5658 5655 5652 5649 5647 5644 5642 5639 5636 5634 5632 5629 5627 5625 5622 5620 5617 5615 5613
5672 5673 5672 5673 5673 5673 5674 5674 5673 5673 5671 5669 5667 5665 5662 5660 5657 5655 5652 5649 5646 5643 5641 5638 5635 5633 5630 5627 5624 5622 5620 5617 5614 5611 5608 5605 5602 5600
5664 5665 5665 5665 5665 5666 5666 5666 5666 5664 5663 5661 5658 5656 5654 5651 5649 5646 5643 5641 5638 5634 5632 5629 5626 5623 5620 5617 5615 5612 5609 5606 5603 5599 5594 5591 5588 5585
5655 5656 5656 5657 5657 5658 5658 5658 5657 5656 5655 5652 5650 5648 5646 5643 5640 5637 5634 5631 5628 5625 5623 5619 5616 5613 5611 5607 5604 5601 5598 5593 5589 5584 5579 5575 5571 5568
5647 5648 5648 5649 5650 5650 5650 5650 5649 5647 5645 5643 5642 5639 5636 5633 5631 5628 5625 5622 5619 5616 5612 5609 5606 5603 5600 5596 5593 5589 5584 5579 5574 5569 5564 5559 5554 5551
5639 5640 5641 5641 5642 5642 5642 5641 5640 5638 5636 5634 5632 5630 5627 5624 5621 5618 5615 5612 5609 5606 5602 5598 5595 5593 5589 5585 5580 5576 5572 5566 5561 5555 5548 5542 5538 5536
5632 5632 5633 5634 5634 5633 5633 5632 5631 5629 5627 5625 5623 5621 5618 5615 5612 5608 5605 5602 5599 5595 5592 5588 5584 5581 5576 5572 5567 5562 5557 5551 5547 5541 5534 5528 5525 5523
5623 5624 5625 5625 5626 5625 5624 5623 5622 5620 5618 5616 5613 5611 5608 5605 5601 5598 5595 5592 5588 5584 5580 5576 5573 5569 5564 5559 5553 5547 5543 5537 5531 5526 5521 5517 5513 5510
5615 5616 5617 5617 5617 5616 5615 5614 5612 5610 5608 5605 5603 5600 5597 5594 5590 5587 5584 5580 5576 5572 5568 5564 5560 5556 5551 5545 5539 5533 5528 5522 5517 5511 5507 5503 5499 5495
5607 5607 5607 5607 5607 5606 5605 5604 5602 5600 5597 5595 5592 5589 5586 5583 5579 5575 5572 5568 5564 5559 5555 5552 5548 5543 5538 5531 5525 5518 5513 5508 5502 5497 5491 5488 5483 5477
5597 5598 5597 5597 5596 5596 5595 5593 5591 5588 5586 5583 5581 5578 5574 5571 5567 5563 5560 5556 5552 5548 5543 5539 5535 5531 5525 5519 5511 5502 5497 5492 5487 5481 5475 5471 5468 5457
5588 5588 5587 5587 5586 5584 5583 5581 5579 5577 5574 5572 5569 5566 5562 5559 5555 5551 5547 5543 5539 5535 5530 5526 5521 5516 5511 5506 5498 5487 5484 5477 5470 5465 5459 5454 5448 5442
5577 5577 5576 5576 5574 5573 5571 5569 5567 5565 5563 5560 5557 5553 5549 5546 5542 5538 5534 5530 5526 5522 5517 5512 5508 5502 5497 5491 5484 5475 5468 5462 5456 5450 5444 5439 5434 5429
5566 5566 5565 5564 5563 5561 5560 5558 5556 5553 5550 5548 5544 5540 5536 5532 5529 5525 5521 5518 5513 5509 5504 5499 5494 5489 5482 5476 5470 5464 5455 5448 5441 5436 5429 5424 5422 5418
5556 5555 5555 5554 5552 5550 5549 5547 5544 5541 5538 5534 5531 5527 5523 5519 5516 5512 5509 5505 5501 5496 5491 5485 5479 5474 5468 5462 5457 5450 5443 5435 5429 5423 5415 5411 5409 5404